Location: Newark
(36.0797°N, 3.9744°E)
Time: 02:04:24
(UTC+00:00)

Vanguard 2 Rocket - Pass Details

Date: 10 December 2019
Orbit: 554 x 3326 km, 32.9° (Epoch: 20 January)

Event Time Altitude Azimuth Distance (km) Brightness Sun altitude
Rises 15:39:21 0° 221° (SW) 7,224 13.4 7.8°
Reaches altitude 10° 15:45:01 10° 214° (SW) 6,014 12.7 6.9°
Maximum altitude 16:00:34 39° 155° (SSE) 3,210 9.8 4.3°
Drops below altitude 10° 16:10:40 10° 91° (E) 3,966 9.7 2.5°
Sets 16:13:32 0° 83° (E) 4,624 9.9 2.0°
